Location: Hilton Head Island
(32.2163°N, 80.7526°W)
Time: 19:05:05
(UTC-04:00)

A-11 Canister half - Pass Details

Date: 20 February 2026
Orbit: 1525 x 1683 km, 47.3° (Epoch: 10 March)

Event Time Altitude Azimuth Distance (km) Brightness Sun altitude
Rises 19:20:33 0° 295° (WNW) 4,692 12.7 -14.9°
Reaches altitude 10° 19:24:07 10° 305° (NW) 3,698 11.8 -15.6°
Maximum altitude 19:32:12 32° 6° (N) 2,389 9.9 -17.3°
Enters shadow 19:37:48 18° 56° (NE) 3,096 10.1 -18.5°
